Weather History for YBCS - May, 2013

Change the Weather History Date:

Thursday, May 16, 2013

  Actual Average Record
Temperature  
Mean Temperature 76 °F -  
Max Temperature 84 °F 80 °F - ()
Min Temperature 68 °F 66 °F - ()
Cooling Degree Days 11    
Growing Degree Days 26 (Base 50)    
Moisture  
Dew Point 71 °F    
Average Humidity 85    
Maximum Humidity 100    
Minimum Humidity 61    
Precipitation  
Precipitation 0.00 in 0.10 in - ()
Sea Level Pressure  
Sea Level Pressure 29.91 in    
Wind  
Wind Speed 3 mph ()    
Max Wind Speed 10 mph    
Max Gust Speed -    
Visibility 7.2 miles    
Events      
T = Trace of Precipitation, MM = Missing Value Source: Averaged Metar Reports

Daily Weather History Graph

Daily Weather History Graph

Search for Another Location

Airport or City:

Trip Planner

Search our weather history database for the weather conditions in past years. The results will help you decide how hot, cold, wet, or windy it might be!

Date:

Astronomy

May. 16, 2013 Rise Set
Actual Time 6:33 AM AEST 5:52 PM AEST
Civil Twilight 6:10 AM AEST 6:15 PM AEST
Nautical Twilight 5:44 AM AEST 6:42 PM AEST
Astronomical Twilight 5:18 AM AEST 7:08 PM AEST
Moon 11:09 AM AEST (5/16) 10:54 PM AEST (5/16)
Length of Visible Light 12h 04m
Length of Day
11h 19m
Waxing Crescent, 30% of the Moon is Illuminated
May 16
Waxing Crescent
May 18
First Quarter
May 25
Full
Jun 1
Last Quarter
Jun 9
New

Hourly Weather History & Observations

Time (AEST) Temp. Heat Index Dew Point Humidity Pressure Visibility Wind Dir Wind Speed Gust Speed Precip Events Conditions
12:00 AM 73 °F - 70 °F 86% 29.93 in - SE 6.9 mph - -  
12:00 AM 73.4 °F - 69.8 °F 88% 29.92 in 6.2 mi SE 6.9 mph - N/A   Partly Cloudy
12:30 AM 71.6 °F - 69.8 °F 94% 29.92 in 6.2 mi Calm Calm - N/A   Unknown
1:00 AM 71 °F - 69 °F 92% 29.92 in - Calm Calm - -  
1:00 AM 69.8 °F - 69.8 °F 100% 29.92 in 6.2 mi Calm Calm - N/A   Partly Cloudy
1:30 AM 69.8 °F - 68.0 °F 94% 29.89 in 6.2 mi Calm Calm - N/A   Partly Cloudy
2:00 AM 69.8 °F - 68.0 °F 94% 29.89 in 6.2 mi WNW 2.3 mph - N/A   Partly Cloudy
2:30 AM 69.8 °F - 68.0 °F 94% 29.89 in 6.2 mi Calm Calm - N/A   Partly Cloudy
3:00 AM 70 °F - 69 °F 94% 29.88 in - WNW 1.2 mph - -  
3:00 AM 69.8 °F - 68.0 °F 94% 29.89 in 6.2 mi WNW 1.2 mph - N/A   Partly Cloudy
3:30 AM 69.8 °F - 68.0 °F 94% 29.89 in 6.2 mi Calm Calm - N/A   Partly Cloudy
4:00 AM 69.8 °F - 68.0 °F 94% 29.89 in 6.2 mi Calm Calm - N/A   Partly Cloudy
4:30 AM 69.8 °F - 68.0 °F 94% 29.89 in 6.2 mi Calm Calm - N/A   Mostly Cloudy
5:00 AM 69.8 °F - 68.0 °F 94% 29.89 in 6.2 mi WSW 3.5 mph - N/A   Scattered Clouds
5:30 AM 69.8 °F - 68.0 °F 94% 29.89 in 6.2 mi Calm Calm - N/A   Scattered Clouds
6:00 AM 69 °F - 69 °F 98% 29.90 in 19 mi Calm Calm - -   Partly Cloudy
6:00 AM 69.8 °F - 68.0 °F 94% 29.89 in 6.2 mi Calm Calm - N/A   Mostly Cloudy
6:30 AM 69.8 °F - 69.8 °F 100% 29.89 in 6.2 mi WSW 1.2 mph - N/A   Scattered Clouds
7:00 AM 71.6 °F - 69.8 °F 94% 29.92 in 6.2 mi Calm Calm - N/A   Scattered Clouds
7:30 AM 71.6 °F - 69.8 °F 94% 29.92 in 6.2 mi SSW 1.2 mph - N/A   Scattered Clouds
8:00 AM 73.4 °F - 69.8 °F 88% 29.92 in 6.2 mi NW 2.3 mph - N/A   Mostly Cloudy
8:30 AM 75.2 °F - 69.8 °F 83% 29.95 in 6.2 mi West 1.2 mph - N/A   Mostly Cloudy
9:00 AM 76 °F - 71 °F 78% 29.96 in 19 mi East 4.6 mph - -   Partly Cloudy
9:00 AM 75.2 °F - 69.8 °F 83% 29.95 in 6.2 mi East 4.6 mph - N/A   Mostly Cloudy
9:30 AM 77.0 °F - 69.8 °F 78% 29.95 in 6.2 mi SE 8.1 mph - N/A   Mostly Cloudy
10:00 AM 78 °F - 72 °F 76% 29.97 in - West 5.8 mph - -  
10:00 AM 78.8 °F - 71.6 °F 78% 29.95 in 6.2 mi West 5.8 mph - N/A   Mostly Cloudy
10:30 AM 80.6 °F 84.6 °F 71.6 °F 74% 29.95 in 6.2 mi Calm Calm - N/A   Mostly Cloudy
11:00 AM 82.4 °F 87.2 °F 71.6 °F 70% 29.92 in 6.2 mi SSE 6.9 mph - N/A   Mostly Cloudy
11:30 AM 80.6 °F 83.9 °F 69.8 °F 70% 29.92 in 6.2 mi SSE 5.8 mph - N/A   Mostly Cloudy
12:00 PM 83 °F - 72 °F 61% 29.92 in 19 mi South 4.6 mph - -   Partly Cloudy
12:00 PM 84.2 °F 89.6 °F 71.6 °F 66% 29.92 in 6.2 mi South 4.6 mph - N/A   Scattered Clouds
12:30 PM 84.2 °F 89.6 °F 71.6 °F 66% 29.89 in 6.2 mi ENE 4.6 mph - N/A   Scattered Clouds
1:00 PM 83 °F - 72 °F 63% 29.90 in - NE 8.1 mph - -  
1:00 PM 82.4 °F 87.2 °F 71.6 °F 70% 29.89 in 6.2 mi NE 8.1 mph - N/A   Partly Cloudy
1:30 PM 82.4 °F 87.2 °F 71.6 °F 70% 29.86 in 6.2 mi NE 8.1 mph - N/A   Partly Cloudy
2:00 PM 82.4 °F 88.2 °F 73.4 °F 74% 29.86 in 6.2 mi NNE 10.4 mph - N/A   Partly Cloudy
2:30 PM 82.4 °F 88.2 °F 73.4 °F 74% 29.86 in 6.2 mi NE 10.4 mph - N/A   Scattered Clouds
3:00 PM 82 °F - 71 °F 62% 29.87 in 19 mi NE 9.2 mph - -   Partly Cloudy
3:00 PM 82.4 °F 87.2 °F 71.6 °F 70% 29.86 in 6.2 mi NE 9.2 mph - N/A   Partly Cloudy
3:30 PM 82.4 °F 87.2 °F 71.6 °F 70% 29.86 in 6.2 mi ENE 9.2 mph - N/A   Partly Cloudy
4:00 PM 82 °F - 72 °F 65% 29.88 in - NE 8.1 mph - -  
4:00 PM 82.4 °F 87.2 °F 71.6 °F 70% 29.86 in 6.2 mi NE 8.1 mph - N/A   Partly Cloudy
4:30 PM 80.6 °F 85.4 °F 73.4 °F 79% 29.89 in 6.2 mi NE 6.9 mph - N/A   Partly Cloudy
5:00 PM 80.6 °F 85.4 °F 73.4 °F 79% 29.89 in 6.2 mi NNE 5.8 mph - N/A   Partly Cloudy
5:30 PM 78.8 °F - 73.4 °F 83% 29.89 in 6.2 mi NNE 5.8 mph - N/A   Partly Cloudy
6:00 PM 77 °F - 73 °F 85% 29.91 in - North 3.5 mph - -  
6:00 PM 77.0 °F - 73.4 °F 89% 29.89 in 6.2 mi North 3.5 mph - N/A   Partly Cloudy
6:30 PM 77.0 °F - 73.4 °F 89% 29.92 in 6.2 mi WNW 2.3 mph - N/A   Partly Cloudy
7:00 PM 76 °F - 73 °F 88% 29.94 in - Calm Calm - -  
7:00 PM 75.2 °F - 73.4 °F 94% 29.92 in 6.2 mi Calm Calm - N/A   Partly Cloudy
7:30 PM 75.2 °F - 73.4 °F 94% 29.92 in 6.2 mi Calm Calm - N/A   Partly Cloudy
8:00 PM 75.2 °F - 73.4 °F 94% 29.95 in 6.2 mi West 4.6 mph - N/A   Partly Cloudy
8:30 PM 75.2 °F - 73.4 °F 94% 29.95 in 6.2 mi West 5.8 mph - N/A   Partly Cloudy
9:00 PM 75 °F - 72 °F 89% 29.97 in - West 4.6 mph - -  
9:00 PM 75.2 °F - 71.6 °F 89% 29.98 in 6.2 mi West 4.6 mph - N/A   Partly Cloudy
9:30 PM 75.2 °F - 73.4 °F 94% 29.98 in 6.2 mi West 5.8 mph - N/A   Partly Cloudy
10:00 PM 74 °F - 72 °F 94% 29.98 in - West 4.6 mph - -  
10:00 PM 75.2 °F - 73.4 °F 94% 29.98 in 6.2 mi West 4.6 mph - N/A   Mostly Cloudy
10:30 PM 75.2 °F - 73.4 °F 94% 29.95 in 6.2 mi West 2.3 mph - N/A   Scattered Clouds
11:00 PM 73.4 °F - 71.6 °F 94% 29.95 in 6.2 mi West 3.5 mph - N/A   Scattered Clouds
11:30 PM 73.4 °F - 71.6 °F 94% 29.95 in 6.2 mi Calm Calm - N/A   Scattered Clouds